Location: Quedlinburg
(51.7921°N, 11.1414°E)
Time: 16:08:05
(UTC+02:00)

CUBESAT XI-V - Pass Details

Date: 19 March 2026
Orbit: 643 x 664 km, 98.3° (Epoch: 17 April)

Event Time Altitude Azimuth Distance (km) Brightness Sun altitude
Exits shadow 03:32:19 34° 328° (NNW) 1,083 ? -25.3°
Drops below altitude 10° 03:34:56 10° 340° (NNW) 2,066 ? -25.0°
Sets 03:37:10 0° 344° (NNW) 2,978 ? -24.7°
